Regional Weather Roundup
Issued by NWS Lake Charles, LA

Home | Current Version | Previous Version | Text Only | Print | Product List | Glossary On
Versions: 1 2 3 4 5 6 7 8 9 10 11 12 13 14 15 16 17 18 19 20 21 22 23 24 25 26 27 28 29 30 31 32 33 34 35 36 37 38 39 40 41 42 43 44 45 46 47 48 49 50
717
ASUS44 KLCH 071410
RWRLCH
REGIONAL WEATHER ROUNDUP
NATIONAL WEATHER SERVICE LAKE CHARLES LA
800 AM CST SUN FEB 07 2016

Note: "fair" indicates few or no clouds below 12,000 feet with no
significant weather and/or obstructions to visibility.


ACROSS SOUTHEAST TEXAS

CITY           SKY/WX    TMP DP  RH WIND       PRES   REMARKS
BEAUMONT       FOG       34  34 100 CALM      30.31R VSB<1/4
BEAUMONT CITY  FAIR      35  33  94 CALM      30.30F FOG
ORANGE         FOG       33  31  96 CALM      30.33S VSB 1/2
JASPER         FOG       30  30 100 CALM      30.33R VSB 1/4
$$

ACROSS CENTRAL LOUISIANA

CITY           SKY/WX    TMP DP  RH WIND       PRES   REMARKS
LEESVILLE      SUNNY     33  33  99 NE1       30.30S
FULLERTON      FAIR      32  31  96 CALM      30.28S
ALEXANDRIA INT PTSUNNY   33  33 100 CALM      30.31S FOG
ESLER FIELD    MOSUNNY   33  30  88 W3        30.32R
DERIDDER         N/A     32  31  96 CALM      30.33S FOG
OAKDALE          N/A     31  30  98 CALM      30.32S FOG
OPELOUSAS      FOG       32  32 100 CALM      30.31S VSB 1
$$

ACROSS SOUTHWEST AND SOUTH CENTRAL LOUISIANA

CITY           SKY/WX    TMP DP  RH WIND       PRES   REMARKS
SULPHUR        FOG       33  33  99 MISG      30.32R VSB 3/4
LAKE CHARLES   MOSUNNY   36  35  96 CALM      30.31R FOG
CHENNAULT INT  FOG       32  32 100 CALM      30.31  VSB 1/4
CAMERON PHI    SUNNY     41  41 100 CALM      30.33S
DEQUINCY       FOG       30  30 100 CALM      30.32R VSB 1/2
JENNINGS       FOG       34  34 100 CALM      30.31S VSB<1/4
LAFAYETTE      SUNNY     38  36  92 CALM      30.31F
NEW IBERIA     SUNNY     35  34  96 CALM      30.32S
ABBEVILLE      FOG       34  34 100 CALM      30.31F VSB 3/4
PATTERSON      SUNNY     39  36  87 CALM      30.33R
SALT POINT       N/A     41  38  89 N3        30.31R
$$

SELECTED SITES ACROSS THE REGION

CITY           SKY/WX    TMP DP  RH WIND       PRES   REMARKS
HOUSTON BUSH   PTCLDY    37  36  96 SE5       30.30R
HOUSTON HOBBY  PTCLDY    38  35  89 CALM      30.30R
GALVESTON      SUNNY     47  45  93 CALM      30.31F
COLLEGE STAT   CLOUDY    33  33 100 CALM      30.29S FOG
CONROE         CLOUDY    32  30  92 CALM      30.29S
HUNTSVILLE     CLOUDY    38  35  89 S6        30.27S
LUFKIN         PTCLDY    29  28  96 CALM      30.30R FOG
SHREVEPORT     PTCLDY    32  30  92 CALM      30.28S
MONROE         SUNNY     32  30  92 CALM      30.31S
NATCHEZ MS     SUNNY     32  27  80 CALM      30.30R
BATON ROUGE    SUNNY     35  30  82 CALM      30.31R
N.O. INTL ARPT SUNNY     42  34  73 CALM      30.31R
SLIDELL        SUNNY     34  31  88 CALM      30.31R
$$

MARINE REPORTS

STATION/POSITION TIME  SKY/WX   TEMP    WIND        PRES    VSBY
                                AIR SEA DIR/SP/G
                 (UTC)          (F)     (DEG/KT/KT) (MB)    (MI)
BUOY 30 S HIGH I 1350            51 59   40/  4/  8 1026.4R
WVE H/P(F/S)=  1/ 7

SEA RIM ST PARK  1400            39     310/  3/  3 1027.0R
PORT ARTHUR      1300               55   20/  2/  3 1026.2F
SABINE PASS N    1300            44 55   40/  2/  2 1027.3F
TEXAS POINT      NOT AVBL
CALCASIEU PASS   1300            43 54   30/  2/  2 1025.1F
LK CHARLES BEACH 1300            36 53              1026.7S
MARSH ISLAND     1300            47      30/  4/  6   N/A
WVE H/P(F/S)=  0

FRESH WATER LOCK 1300            40 53   40/  2/  3 1026.1F
AMERADA PASS     1300            41 49   10/  2/  3 1026.3R
$$




USA.gov is the U.S. government's official web portal to all federal, state and local government web resources and services.